Location: Beneden-Haastrecht
(52.0012°N, 4.7557°E)
Time: 10:28:31
(UTC+00:00)

X-37B - Pass Details

Date: 26 January 2021
Orbit: 383 x 391 km, 45.0° (Epoch: 27 February)

Event Time Altitude Azimuth Distance (km) Brightness Sun altitude
Rises 18:04:20 0° 255° (WSW) 2,273 6.3 -16.1°
Reaches altitude 10° 18:06:40 10° 240° (WSW) 1,419 4.5 -16.5°
Maximum altitude 18:09:15 23° 186° (S) 896 2.5 -16.9°
Enters shadow 18:10:26 18° 154° (SSE) 1,030 2.5 -17.0°
